This is the latest recevied weather packets stored in our database for station/object KJ6APE. If no packets are shown the sender has not sent any weather packets the latest 10 day(s).
| Time | Temp. | Humidity | Pressure | Rain* | Wind** | Luminosity | Snow |
|---|---|---|---|---|---|---|---|
| 1778170526 | 15.56° C | 75% | 1019.4 hPa | 0 mm | - | 415 W/m² | - |
| 1778170223 | 16.11° C | 74% | 1019.5 hPa | 0 mm | - | 359 W/m² | - |
| 1778169919 | 16.11° C | 75% | 1019.4 hPa | 0 mm | - | 272 W/m² | - |
| 1778169616 | 16.11° C | 74% | 1019.5 hPa | 0 mm | - | 308 W/m² | - |
| 1778169311 | 16.11° C | 74% | 1019.6 hPa | 0 mm | - | 371 W/m² | - |
| 1778169009 | 15.56° C | 76% | 1019.5 hPa | 0 mm | - | 382 W/m² | - |
| 1778168705 | 15° C | 79% | 1019.5 hPa | 0 mm | - | 284 W/m² | - |
| 1778168402 | 14.44° C | 80% | 1019.4 hPa | 0 mm | - | 261 W/m² | - |
| 1778168099 | 13.89° C | 82% | 1019.3 hPa | 0 mm | - | 346 W/m² | - |
| 1778167795 | 13.89° C | 82% | 1019.6 hPa | 0 mm | - | 182 W/m² | - |
| 1778167491 | 13.33° C | 83% | 1019.5 hPa | 0 mm | - | 194 W/m² | - |
| 1778167187 | 13.33° C | 84% | 1019.6 hPa | 0 mm | - | 154 W/m² | - |
| 1778166884 | 13.89° C | 83% | 1019.5 hPa | 0 mm | - | 141 W/m² | - |
| 1778166580 | 13.33° C | 84% | 1019.5 hPa | 0 mm | - | 138 W/m² | - |
| 1778166278 | 13.33° C | 84% | 1019.7 hPa | 0 mm | - | 123 W/m² | - |
| 1778165974 | 13.33° C | 84% | 1019.6 hPa | 0 mm | - | 125 W/m² | - |
| 1778165670 | 13.33° C | 84% | 1019.6 hPa | 0 mm | - | 110 W/m² | - |
| 1778165367 | 13.33° C | 84% | 1019.7 hPa | 0 mm | - | 103 W/m² | - |
| 1778165064 | 13.33° C | 84% | 1019.6 hPa | 0 mm | - | 93 W/m² | - |
| 1778164761 | 13.33° C | 84% | 1019.5 hPa | 0 mm | - | 100 W/m² | - |
| 1778164458 | 13.33° C | 85% | 1019.6 hPa | 0 mm | - | 91 W/m² | - |
| 1778164155 | 13.33° C | 85% | 1019.6 hPa | 0 mm | - | 80 W/m² | - |
| 1778163850 | 12.78° C | 86% | 1019.5 hPa | 0 mm | - | 67 W/m² | - |
| 1778163548 | 12.78° C | 86% | 1019.6 hPa | 0 mm | - | 57 W/m² | - |
| 1778163244 | 12.78° C | 86% | 1019.5 hPa | 0 mm | - | 52 W/m² | - |
* Rain latest hour (hover to see other rain measurements)
** Current wind speed in m/s (hover to see current wind gust speed)